When you browse on this site, cookies collect data to enhance your experience and personalize the content and advertising you see.
Visit our Privacy Policy to learn more. By continuing to use the site, you agree to this use of cookies and data.
  • In Hungary
  • List of Countries
  • For 7 days
  • Water Temperature
  • Satellite Maps
  • Weather Map
  • News
  • Weather Widgets
  • user-avatar
    Login

    Hourly Weather Zajanie

    Today, 19 May, Sunday

    Time Temperature Precipitation Wind Pressure Humidity
    00:00 +13°C° 0 mm 1 mps 733 mmHg 91%
    01:00 +13°C° 0 mm 1 mps 733 mmHg 91%
    02:00 +12°C° 0 mm 1 mps 733 mmHg 91%
    03:00 +12°C° 0 mm 1 mps 733 mmHg 91%
    04:00 +12°C° 0 mm 1 mps 733 mmHg 91%
    05:00 +13°C° 0 mm 1 mps 733 mmHg 87%
    06:00 +14°C° 0 mm 0 mps 733 mmHg 83%
    07:00 +16°C° 0 mm 0 mps 733 mmHg 79%
    08:00 +20°C° 0 mm 1 mps 733 mmHg 73%
    09:00 +22°C° 0 mm 1 mps 733 mmHg 67%
    10:00 +23°C° 0 mm 2 mps 733 mmHg 62%
    11:00 +24°C° 0.2 mm 2 mps 733 mmHg 61%
    12:00 +25°C° 0.2 mm 3 mps 732 mmHg 60%
    13:00 +25°C° 0.2 mm 4 mps 732 mmHg 59%
    14:00 +25°C° 0.2 mm 4 mps 732 mmHg 60%
    15:00 +25°C° 0.2 mm 4 mps 732 mmHg 61%
    16:00 +25°C° 0.2 mm 4 mps 732 mmHg 63%
    17:00 +22°C° 0.1 mm 4 mps 732 mmHg 69%
    18:00 +20°C° 0.1 mm 3 mps 732 mmHg 75%
    19:00 +19°C° 0.1 mm 3 mps 731 mmHg 81%
    20:00 +17°C° 0 mm 3 mps 731 mmHg 84%
    21:00 +16°C° 0 mm 3 mps 731 mmHg 88%
    22:00 +15°C° 0 mm 2 mps 731 mmHg 91%
    23:00 +15°C° 0 mm 2 mps 731 mmHg 91%

    Tomorrow, 20 May, Monday

    Time Temperature Precipitation Wind Pressure Humidity
    00:00 +14°C° 0 mm 2 mps 731 mmHg 91%
    01:00 +14°C° 0 mm 1 mps 731 mmHg 91%
    02:00 +14°C° 0 mm 1 mps 731 mmHg 91%
    03:00 +14°C° 0 mm 1 mps 731 mmHg 91%
    04:00 +14°C° 0 mm 1 mps 730 mmHg 90%
    05:00 +15°C° 0 mm 2 mps 730 mmHg 87%
    06:00 +17°C° 0 mm 2 mps 731 mmHg 84%
    07:00 +18°C° 0 mm 3 mps 731 mmHg 81%
    08:00 +20°C° 0.1 mm 3 mps 731 mmHg 75%
    09:00 +21°C° 0.1 mm 4 mps 731 mmHg 69%
    10:00 +23°C° 0.1 mm 4 mps 731 mmHg 62%
    11:00 +25°C° 0.1 mm 4 mps 731 mmHg 59%
    12:00 +25°C° 0.1 mm 4 mps 732 mmHg 56%
    13:00 +25°C° 0.1 mm 4 mps 732 mmHg 53%
    14:00 +25°C° 0 mm 4 mps 732 mmHg 55%
    15:00 +25°C° 0 mm 3 mps 732 mmHg 56%
    16:00 +25°C° 0 mm 3 mps 732 mmHg 58%
    17:00 +22°C° 0 mm 3 mps 731 mmHg 63%
    18:00 +20°C° 0 mm 3 mps 731 mmHg 69%
    19:00 +18°C° 0 mm 2 mps 731 mmHg 74%
    20:00 +17°C° 0 mm 2 mps 731 mmHg 76%
    21:00 +16°C° 0 mm 2 mps 732 mmHg 77%
    22:00 +15°C° 0 mm 2 mps 732 mmHg 79%
    23:00 +15°C° 0 mm 2 mps 732 mmHg 79%

    Day after tomorrow, 21 May, Tuesday

    Time Temperature Precipitation Wind Pressure Humidity
    00:00 +14°C° 0 mm 2 mps 732 mmHg 80%
    01:00 +14°C° 0 mm 1 mps 732 mmHg 80%
    02:00 +13°C° 0 mm 1 mps 731 mmHg 81%
    03:00 +13°C° 0 mm 1 mps 731 mmHg 81%
    04:00 +13°C° 0 mm 1 mps 731 mmHg 81%
    05:00 +14°C° 0 mm 1 mps 732 mmHg 77%
    06:00 +16°C° 0 mm 1 mps 732 mmHg 74%
    07:00 +18°C° 0 mm 1 mps 732 mmHg 70%
    08:00 +18°C° 0.5 mm 1 mps 732 mmHg 73%
    09:00 +18°C° 0.5 mm 1 mps 732 mmHg 76%
    10:00 +17°C° 0.5 mm 2 mps 732 mmHg 79%
    11:00 +19°C° 0.3 mm 1 mps 732 mmHg 77%
    12:00 +19°C° 0.3 mm 1 mps 732 mmHg 74%
    13:00 +19°C° 0.3 mm 1 mps 732 mmHg 71%
    14:00 +20°C° 0.1 mm 1 mps 732 mmHg 70%
    15:00 +20°C° 0.1 mm 1 mps 732 mmHg 70%
    16:00 +20°C° 0.1 mm 1 mps 732 mmHg 70%
    17:00 +19°C° 0.3 mm 1 mps 732 mmHg 74%
    18:00 +18°C° 0.3 mm 1 mps 732 mmHg 78%
    19:00 +16°C° 0.3 mm 1 mps 732 mmHg 82%
    20:00 +15°C° 0 mm 1 mps 732 mmHg 84%
    21:00 +14°C° 0 mm 1 mps 733 mmHg 86%
    22:00 +13°C° 0 mm 2 mps 733 mmHg 87%
    23:00 +13°C° 0 mm 2 mps 733 mmHg 89%

    22 May, Wednesday

    Time Temperature Precipitation Wind Pressure Humidity
    00:00 +12°C° 0 mm 2 mps 733 mmHg 90%
    01:00 +12°C° 0 mm 2 mps 733 mmHg 91%
    02:00 +12°C° 0 mm 2 mps 733 mmHg 92%
    03:00 +11°C° 0 mm 1 mps 733 mmHg 92%
    04:00 +11°C° 0 mm 1 mps 733 mmHg 93%
    05:00 +12°C° 0 mm 1 mps 733 mmHg 90%
    06:00 +14°C° 0 mm 2 mps 733 mmHg 86%
    07:00 +15°C° 0 mm 2 mps 734 mmHg 83%
    08:00 +16°C° 0.1 mm 2 mps 734 mmHg 78%
    09:00 +18°C° 0.1 mm 2 mps 734 mmHg 73%
    10:00 +19°C° 0.1 mm 2 mps 734 mmHg 68%
    11:00 +19°C° 0.6 mm 3 mps 734 mmHg 70%
    12:00 +19°C° 0.6 mm 3 mps 734 mmHg 72%
    13:00 +19°C° 0.6 mm 3 mps 734 mmHg 74%
    14:00 +19°C° 0.7 mm 4 mps 734 mmHg 77%
    15:00 +19°C° 0.7 mm 4 mps 734 mmHg 80%
    16:00 +17°C° 0.7 mm 5 mps 734 mmHg 82%
    17:00 +17°C° 0.2 mm 4 mps 734 mmHg 85%
    18:00 +16°C° 0.2 mm 3 mps 734 mmHg 88%
    19:00 +16°C° 0.2 mm 3 mps 734 mmHg 91%
    20:00 +14°C° 0.1 mm 3 mps 735 mmHg 92%
    21:00 +14°C° 0.1 mm 3 mps 735 mmHg 93%
    22:00 +13°C° 0.1 mm 3 mps 735 mmHg 95%
    23:00 +13°C° 0 mm 3 mps 736 mmHg 95%

    23 May, Thursday

    Time Temperature Precipitation Wind Pressure Humidity
    00:00 +13°C° 0 mm 3 mps 736 mmHg 95%
    01:00 +13°C° 0 mm 4 mps 736 mmHg 95%
    02:00 +12°C° 0 mm 4 mps 736 mmHg 95%
    03:00 +12°C° 0 mm 4 mps 736 mmHg 95%
    04:00 +12°C° 0 mm 4 mps 736 mmHg 95%
    05:00 +12°C° 0.1 mm 4 mps 736 mmHg 93%
    06:00 +13°C° 0.1 mm 4 mps 737 mmHg 92%
    07:00 +13°C° 0.1 mm 4 mps 737 mmHg 90%
    08:00 +14°C° 0.1 mm 5 mps 737 mmHg 84%
    09:00 +15°C° 0.1 mm 5 mps 737 mmHg 78%
    10:00 +16°C° 0.1 mm 6 mps 738 mmHg 71%
    11:00 +16°C° 0 mm 6 mps 738 mmHg 65%
    12:00 +17°C° 0 mm 6 mps 738 mmHg 59%
    13:00 +19°C° 0 mm 6 mps 737 mmHg 53%
    14:00 +19°C° 0 mm 5 mps 737 mmHg 54%
    15:00 +19°C° 0 mm 5 mps 737 mmHg 55%
    16:00 +19°C° 0 mm 5 mps 737 mmHg 56%
    17:00 +17°C° 0 mm 4 mps 737 mmHg 63%
    18:00 +16°C° 0 mm 3 mps 737 mmHg 69%
    19:00 +14°C° 0 mm 2 mps 737 mmHg 76%
    20:00 +13°C° 0 mm 2 mps 737 mmHg 79%
    21:00 +11°C° 0 mm 1 mps 738 mmHg 83%
    22:00 +10°C° 0 mm 1 mps 738 mmHg 86%
    23:00 +9°C° 0 mm 1 mps 738 mmHg 87%

    24 May, Friday

    Time Temperature Precipitation Wind Pressure Humidity
    00:00 +9°C° 0 mm 1 mps 738 mmHg 88%
    01:00 +9°C° 0 mm 1 mps 738 mmHg 89%
    02:00 +8°C° 0 mm 1 mps 738 mmHg 89%
    03:00 +8°C° 0 mm 1 mps 737 mmHg 89%
    04:00 +8°C° 0 mm 1 mps 737 mmHg 89%
    05:00 +10°C° 0 mm 1 mps 737 mmHg 83%
    06:00 +11°C° 0 mm 0 mps 737 mmHg 77%
    07:00 +13°C° 0 mm 0 mps 737 mmHg 71%
    08:00 +14°C° 0 mm 0 mps 737 mmHg 66%
    09:00 +18°C° 0 mm 1 mps 737 mmHg 61%
    10:00 +19°C° 0 mm 1 mps 737 mmHg 56%
    11:00 +20°C° 0 mm 1 mps 736 mmHg 54%
    12:00 +20°C° 0 mm 1 mps 736 mmHg 52%
    13:00 +21°C° 0 mm 1 mps 736 mmHg 50%
    14:00 +19°C° 0 mm 2 mps 735 mmHg 51%
    15:00 +19°C° 0 mm 2 mps 735 mmHg 52%
    16:00 +19°C° 0 mm 2 mps 734 mmHg 54%
    17:00 +18°C° 0 mm 2 mps 734 mmHg 60%
    18:00 +16°C° 0 mm 1 mps 734 mmHg 66%
    19:00 +15°C° 0 mm 1 mps 734 mmHg 73%
    20:00 +14°C° 0 mm 1 mps 734 mmHg 75%
    21:00 +13°C° 0 mm 1 mps 734 mmHg 78%
    22:00 +11°C° 0 mm 1 mps 735 mmHg 80%
    23:00 +11°C° 0 mm 1 mps 735 mmHg 82%
    Show more